Погода в Самныа

Лаос     20°24′47″N   104°02′59″E
темп.,
°C
ветер,
м/с
пор.,
м/с
влажн.,
%
обл.,
%
осадки,
мм/ч
давл.,
гПа
погр.,
м
10 августа, ср
ср1001:00+17ююз119856 1.5 100611
04:00+17ююз119864 0.3 100513
07:00+19зюз10956 0.3 100640
10:00+27ссз115331 0.0 10051173
13:00+30с2242100 0.2 10022200
16:00+26ссв0163100 0.3 1001661
19:00+20ююв1193100 0.9 100319
22:00+19в1199100 1.8 100623
11 августа, чт
чт1101:00+19з11100100 4.7 100537
04:00+19з12100100 2.4 100493
07:00+19зюз12100100 4.2 1004122
10:00+19зюз12100100 5.8 1004121
13:00+20зюз12100100 14.0 1003175
16:00+19зюз12100100 6.7 1002161
19:00+19зюз13100100 13.8 1002151
22:00+19ююз11100100 5.9 100561
12 августа, пт
пт1201:00+19ююв11100100 8.2 100463
04:00+19юв01100100 1.6 100437
07:00+19юв11100100 1.9 100682
10:00+21ю1297100 2.3 1006364
13:00+21ююв1199100 3.7 1005120
16:00+21юз1198100 1.8 100589
19:00+19юз1199100 2.7 100716
22:00+19юз119995 0.0 100919
13 августа, сб
сб1301:00+18юз119986 0.0 100815
04:00+18юз119988 0.0 100720
07:00+19юз119855 0.0 100979
10:00+22з139025 1.4 1009521
13:00+26зюз247186 3.1 10051179
16:00+26з246777 1.3 10041105
19:00+20юз1197100 3.3 100615
22:00+19юз119899 0.1 100928
14 августа, вс
вс1401:00+19зюз129896 0.1 100846
04:00+18зюз1199100 0.0 100743
07:00+19зюз1297100 0.0 1008101
10:00+26з266285 0.0 10071245
13:00+25зсз1381100 0.5 1005588
16:00+23з1290100 1.4 1005225
19:00+20юз1196100 2.2 100720
22:00+19зюз1199100 2.1 100828